Probability
0 1 2 5 5 6 7 7 5 6 9 12 13 13 13 12 12 12 9 6 4 5 6 4 1 0 0 0 1 2 2 1 0 0 0 0 0 1 2 1 0 0 0
0 0 1 4 5 6 7 7 5 5 7 9 11 12 11 11 10 8 5 4 4 5 5 3 2 0 0 0 2 3 3 2 1 0 0 0 0 1 2 1 0 0 0
0 0 1 3 5 6 7 7 5 4 5 7 9 9 8 7 6 3 2 3 4 4 3 2 1 0 0 0 2 3 3 2 1 0 0 0 0 0 1 1 0 0 0
0 0 1 2 4 6 7 6 4 4 5 6 7 7 5 5 4 3 3 4 4 2 1 1 0 0 1 1 2 3 3 2 1 0 0 0 0 0 0 0 0 0 0
0 0 1 2 3 5 6 5 3 3 4 6 7 6 3 3 4 4 4 4 3 1 0 0 0 1 2 3 3 3 3 2 1 0 0 0 0 0 0 0 0 0 0
0 0 1 2 3 4 5 3 1 2 3 5 6 4 2 1 2 3 3 3 2 1 0 0 0 1 2 3 3 3 3 2 1 0 0 0 0 0 0 0 0 0 0
0 0 1 2 2 3 2 1 1 1 2 3 3 2 1 0 1 1 1 2 2 1 0 0 0 1 2 3 3 3 3 2 1 0 0 0 0 0 0 0 0 0 0
0 0 0 1 1 1 1 1 1 2 2 1 1 1 0 0 0 0 1 2 2 1 0 0 0 1 2 3 3 3 2 1 0 0 0 0 0 0 0 0 0 0 0
1 0 0 0 0 0 0 1 2 3 3 3 2 2 1 0 0 0 1 1 1 0 0 0 0 1 2 3 3 2 1 0 0 0 0 0 0 0 0 0 0 0 0
2 1 0 0 0 0 0 0 1 3 3 3 3 2 1 0 0 0 0 0 0 0 0 0 0 0 1 2 2 1 0 0 0 0 0 0 0 0 0 0 0 0 0
2 1 0 0 0 0 0 0 1 2 3 3 2 2 1 0 0 0 0 0 0 0 0 0 0 0 0 1 1 0 0 0 0 0 0 0 0 0 0 0 0 0 0
2 1 0 0 0 0 0 0 0 1 2 1 1 1 0 0 0 0 0 0 0 0 0 0 0 0 0 0 0 0 0 0 0 0 0 0 0 0 0 0 0 0 0
2 1 0 0 0 0 0 0 0 0 0 0 0 0 0 0 0 0 0 0 0 1 0 0 0 0 0 0 0 0 0 0 0 0 0 0 0 1 1 1 1 1 0
2 1 0 0 0 0 0 0 0 0 0 0 0 0 0 0 0 0 0 0 0 0 0 0 0 0 0 0 0 0 0 0 0 0 0 0 1 2 3 3 2 2 1
3 2 1 1 0 0 0 0 0 0 0 0 0 0 0 0 0 0 0 0 0 0 0 0 0 0 0 0 0 0 0 0 0 0 0 0 1 3 4 4 3 3 3
5 4 4 3 1 1 0 0 0 0 0 0 0 0 0 0 0 0 0 0 0 0 0 0 0 0 0 0 0 0 0 0 0 0 0 0 2 3 4 3 3 3 3
6 6 7 6 4 2 1 0 0 0 0 0 0 0 0 0 1 1 0 0 0 0 0 0 0 0 0 0 0 0 0 0 0 0 0 0 1 2 3 3 3 3 3
6 6 7 7 5 3 2 1 0 0 0 0 0 0 0 1 2 2 1 0 0 0 0 0 0 0 0 0 0 0 0 0 0 0 0 0 0 1 1 2 4 4 4
6 5 6 6 4 3 2 1 0 1 1 1 0 0 1 2 3 3 2 0 0 0 0 0 0 0 0 0 0 0 0 0 0 0 0 0 0 0 0 1 3 5 5
6 5 6 7 5 3 2 1 1 2 2 2 1 1 1 3 3 3 1 0 0 0 0 1 2 1 1 0 0 0 0 0 0 0 0 0 0 0 0 0 2 3 3
10 8 8 10 8 5 3 3 3 3 3 3 3 2 3 3 3 3 2 1 0 0 0 2 3 2 1 0 0 0 0 0 0 0 0 0 0 0 0 0 0 1 1
14 12 12 14 12 7 3 2 2 2 2 2 3 4 4 4 4 4 3 2 0 0 0 1 2 3 2 0 0 0 0 0 0 0 0 0 0 0 0 0 0 0 0
18 16 16 17 15 10 5 3 2 1 1 1 3 4 5 4 4 4 3 2 1 0 0 0 1 2 2 1 0 0 0 0 0 0 0 0 0 0 0 0 0 0 0
22 21 21 21 18 15 11 9 6 2 1 2 3 5 5 4 5 4 4 3 2 2 1 1 1 2 3 2 1 0 0 0 0 0 0 0 0 0 0 0 0 0 0
25 25 26 25 22 20 18 16 11 6 3 3 3 4 4 3 3 5 5 4 4 4 4 4 3 3 3 4 2 1 0 0 0 0 0 0 0 0 0 0 0 0 0
26 27 28 28 25 22 21 19 13 8 5 3 3 4 4 2 2 4 5 4 4 5 6 6 5 4 4 5 3 1 0 0 0 0 0 0 0 0 0 0 0 0 0
Wind_Speed
1 2 8 10 12 12 13 13 14 16 17 18 18 19 19 20 20 21 20 19 19 19 18 17 16 16 16 16 15 15 15 15 15 14 14 14 14 14 14 14 13 10 14
4 4 9 11 12 13 13 13 14 16 16 17 18 18 19 19 19 20 19 19 19 18 17 16 16 16 15 15 15 15 14 14 14 14 14 13 13 13 13 13 12 9 14
6 5 9 12 12 13 13 13 14 15 16 17 17 17 18 19 19 19 19 18 18 17 17 16 16 15 14 14 14 14 13 13 14 13 12 6 8 12 13 13 13 14 13
7 5 8 12 12 13 13 13 14 15 16 16 17 17 18 18 19 19 18 18 17 17 16 15 15 14 14 13 13 13 12 12 12 12 6 5 6 11 12 13 12 12 12
6 5 8 13 13 13 13 14 14 15 16 16 16 16 17 17 18 18 17 17 17 16 16 15 14 13 13 12 12 11 10 10 10 8 5 4 4 10 12 12 12 11 11
6 5 8 13 13 13 13 14 15 15 15 15 15 15 16 16 17 17 16 16 16 16 15 14 13 12 12 11 10 9 8 8 7 5 5 5 4 10 11 11 11 11 10
7 5 7 12 13 13 13 14 14 15 15 15 15 15 15 16 17 16 16 15 15 15 14 13 12 11 10 9 9 8 7 7 5 4 5 5 5 10 11 10 10 10 9
8 6 6 11 12 12 13 13 14 14 14 14 14 14 14 15 15 16 15 15 15 14 13 12 12 10 8 7 7 6 5 5 6 5 5 5 8 10 11 10 10 10 9
8 6 4 5 8 11 12 12 13 14 14 14 14 14 14 14 15 15 14 14 14 13 12 12 11 9 8 6 5 4 4 4 4 3 5 4 9 11 11 11 10 10 9
6 5 4 4 4 5 7 11 11 13 14 14 14 14 14 14 13 14 12 13 14 13 12 11 10 9 7 6 5 4 4 3 3 3 3 5 11 12 12 11 11 10 10
6 4 5 5 4 5 5 8 9 12 12 12 11 13 11 5 6 7 10 12 13 12 11 10 9 8 6 5 4 3 2 1 2 3 3 8 11 12 12 12 11 11 10
8 6 5 6 6 5 5 5 3 5 5 5 4 5 4 4 4 6 9 12 12 11 10 10 8 7 4 1 2 2 1 2 2 3 4 10 11 12 12 12 12 11 11
9 8 6 7 6 5 4 4 2 2 3 4 5 5 4 3 3 3 3 5 6 7 4 5 4 2 2 2 1 1 1 2 2 3 5 11 12 13 13 12 12 12 11
9 8 7 7 6 5 5 4 4 3 3 3 4 5 4 3 3 3 3 3 3 2 3 2 2 2 2 3 3 2 2 2 2 2 5 12 12 13 13 13 12 12 12
7 7 7 7 7 6 5 4 5 4 4 4 4 4 5 4 4 4 3 3 3 3 3 3 2 3 3 3 3 4 3 4 3 3 4 11 12 12 13 14 13 13 13
8 7 6 7 7 7 5 4 4 4 4 4 4 5 5 4 4 4 4 3 3 3 3 3 4 3 3 2 3 3 3 4 4 4 4 7 12 13 13 13 13 13 13
9 7 7 8 7 7 6 5 5 4 5 4 4 5 6 5 6 5 4 4 3 4 4 3 2 1 2 2 2 2 3 4 4 4 4 3 5 11 13 13 13 13 13
9 8 8 8 7 6 5 5 4 4 5 5 4 5 6 6 6 5 4 4 4 3 3 3 2 2 1 1 1 1 2 2 4 4 4 4 4 4 9 13 13 13 14
11 10 7 7 7 6 5 4 4 4 4 4 4 5 5 6 7 5 4 4 4 3 3 4 3 2 2 2 2 2 2 2 3 4 4 5 5 5 4 9 13 14 15
10 9 8 7 7 6 4 3 2 3 3 4 4 5 6 5 6 5 4 4 4 3 3 3 3 2 2 2 2 1 2 2 2 3 5 5 5 6 6 6 6 9 14
10 9 8 8 7 5 3 3 3 3 3 3 4 6 6 6 6 5 4 4 4 4 4 4 3 3 2 2 1 1 2 2 2 3 3 3 5 6 6 6 5 4 5
12 11 9 9 8 7 5 4 3 3 3 3 3 4 5 6 6 6 5 4 4 3 3 4 3 2 2 2 3 1 1 3 3 2 2 3 4 3 4 7 6 6 4
12 12 11 10 9 8 6 3 3 2 1 1 2 3 4 6 6 5 6 5 5 4 4 4 4 4 3 2 2 3 3 3 2 3 2 2 2 2 3 3 5 6 6
13 12 10 10 9 7 7 6 6 5 4 4 3 3 4 5 5 5 6 6 5 4 4 4 4 3 4 2 2 2 3 3 2 2 3 2 2 2 3 3 4 5 5
11 11 10 9 8 8 7 8 6 5 4 2 3 3 3 3 4 5 5 5 5 4 5 4 4 4 3 3 3 2 2 1 2 2 2 2 2 2 2 3 3 3 4
10 10 10 10 9 8 8 7 7 7 6 5 4 4 3 2 3 4 5 5 5 4 5 4 4 4 4 3 3 3 2 2 3 3 3 2 2 2 2 1 2 3 3
Wind_Direction
107 111 114 115 116 114 110 108 109 113 114 116 117 119 120 121 123 124 126 127 127 126 126 126 125 123 122 122 123 123 121 120 121 121 120 119 119 119 117 116 115 112 113
137 124 113 112 111 109 108 110 113 116 117 119 120 121 122 123 124 125 127 128 128 128 128 128 126 123 123 122 120 121 121 121 122 121 119 119 119 119 120 119 119 121 118
121 118 115 112 111 110 108 110 115 119 122 123 124 125 125 126 127 128 129 129 130 130 130 130 127 125 123 123 122 122 122 123 122 121 117 111 117 120 121 123 123 123 122
120 117 117 117 115 114 114 113 115 119 123 124 126 127 128 129 130 131 131 131 131 131 131 131 129 127 125 125 125 124 125 126 125 122 114 116 120 124 124 127 128 127 126
117 117 126 121 118 117 119 118 117 121 123 125 128 131 132 131 133 134 133 133 133 132 132 132 129 128 128 127 126 127 128 127 127 118 115 115 117 132 132 135 135 133 130
121 123 128 122 121 120 122 123 122 123 125 127 130 132 134 135 136 136 136 135 135 135 135 134 131 132 130 128 129 129 129 130 122 119 122 126 130 141 138 140 141 140 138
129 127 127 126 125 125 126 124 124 126 127 128 130 135 136 138 139 140 140 140 140 140 138 137 136 135 133 133 133 133 132 129 120 127 136 139 148 148 146 145 145 146 146
137 132 131 132 130 128 128 128 129 130 131 132 133 134 138 141 141 141 143 144 146 146 144 143 143 143 143 143 139 135 133 131 131 140 143 151 158 156 155 154 152 153 153
138 135 133 139 137 136 134 133 134 134 134 135 134 135 137 139 141 143 146 149 149 150 150 150 150 153 155 154 151 144 135 133 128 144 156 158 165 164 163 161 160 160 161
139 140 142 136 136 139 139 139 140 140 138 139 139 140 142 143 144 146 148 152 153 153 153 154 156 161 163 168 169 162 158 139 133 150 153 169 172 171 172 169 167 168 167
145 150 150 148 144 143 143 142 136 139 141 142 145 147 145 138 138 146 153 155 157 156 157 159 163 169 176 183 186 181 168 141 155 162 169 178 179 178 178 175 174 173 173
158 165 162 156 156 157 152 130 124 132 135 135 141 143 136 137 149 154 164 163 162 161 164 169 175 181 186 181 204 204 162 167 172 175 184 182 184 184 182 180 180 180 181
163 162 161 159 157 155 140 141 139 130 135 142 150 150 145 143 150 152 151 163 161 164 164 174 181 181 183 185 201 206 198 196 174 187 189 187 190 190 189 187 185 186 188
159 163 161 158 157 155 147 152 153 147 150 154 158 159 151 148 149 153 155 154 152 156 164 176 182 190 201 203 203 208 210 207 188 186 193 192 193 194 195 193 191 192 193
155 160 159 156 157 154 150 161 159 162 164 164 158 157 154 154 154 153 155 158 164 163 170 182 195 198 205 206 212 206 202 198 190 187 196 197 196 198 200 199 197 199 198
160 159 157 152 155 154 154 154 154 162 161 160 162 163 161 156 154 154 156 162 171 176 182 188 193 194 203 201 214 209 200 196 196 195 196 200 202 203 203 203 202 203 204
163 158 158 155 154 157 158 158 154 167 160 164 166 164 165 163 163 161 162 173 181 178 178 181 187 182 205 205 222 217 198 201 196 197 196 196 203 208 207 208 208 209 211
162 162 168 163 159 161 162 164 156 162 162 166 163 164 172 171 169 163 168 181 185 172 169 170 175 175 206 211 227 240 219 209 203 202 200 199 197 206 212 213 214 215 217
165 164 166 157 161 167 166 159 155 155 164 167 164 167 175 174 172 166 172 179 177 172 180 188 171 172 190 206 223 233 231 221 212 209 205 203 201 206 208 218 220 220 222
165 164 164 161 165 164 156 142 138 145 165 169 171 176 173 172 170 165 171 176 172 172 184 184 173 173 185 192 215 239 252 243 221 212 212 211 207 209 209 214 217 225 226
164 164 166 165 170 163 156 158 159 170 173 174 184 181 176 172 169 169 176 176 176 180 187 180 171 171 194 170 108 335 324 285 248 230 216 212 216 215 206 211 213 214 225
172 173 170 172 174 173 174 169 167 163 172 180 183 179 179 174 171 178 178 181 179 174 180 180 170 166 197 171 151 126 339 330 313 261 233 218 223 216 211 212 208 207 217
178 179 178 178 176 177 171 152 144 117 116 154 173 185 187 180 182 182 182 180 179 175 183 190 181 172 186 202 172 156 166 226 283 306 272 243 230 219 219 212 203 206 212
184 181 178 175 174 175 168 163 162 169 182 194 185 186 188 183 181 184 180 179 180 179 185 195 185 175 170 192 211 203 187 174 175 287 308 281 252 229 219 218 208 208 210
181 179 175 170 173 174 170 170 172 178 184 177 170 175 184 188 186 187 183 181 185 188 191 195 182 181 180 182 192 196 199 195 181 181 256 290 299 264 229 214 217 214 213
176 177 175 172 177 177 174 174 177 178 178 171 177 181 185 187 191 190 184 185 191 189 191 194 189 188 189 186 191 190 183 185 200 191 219 246 263 275 256 220 221 221 214